Location: London
(51.5074°N, 0.1278°W)
Time: 07:06:51
(UTC+00:00)

TIGRISAT - Pass Details

Date: 10 October 2020
Orbit: 606 x 688 km, 97.7° (Epoch: 30 October)

Event Time Altitude Azimuth Distance (km) Brightness Sun altitude
Rises 22:06:13 0° 7° (N) 3,018 ? -34.6°
Reaches altitude 10° 22:08:35 10° 358° (N) 2,112 ? -34.9°
Enters shadow 22:10:12 20° 346° (NNW) 1,565 ? -35.1°
